Location: Sevilla
(37.3933°N, 5.9839°W)
Time: 12:31:45
(UTC+02:00)

S-56A Canister/Altair - Pass Details

Date: 30 June 2024
Orbit: 638 x 2488 km, 38.9° (Epoch: 14 July)

Event Time Altitude Azimuth Distance (km) Brightness Sun altitude
Rises 03:37:29 0° 286° (WNW) 5,004 11.7 -27.3°
Reaches altitude 10° 03:40:47 10° 278° (W) 4,250 11.2 -27.1°
Enters shadow 03:51:09 37° 219° (SW) 3,146 10.1 -26.4°
Exits shadow 04:05:44 - 155° (SSE) 5,471 11.5 -25.2°
Sets 04:08:42 0° 151° (SSE) 6,135 11.8 -25.0°
